Regional Weather Roundup
Issued by NWS

Home | Current Version | Previous Version | Graphics & Text | Print | Product List | Glossary On
Versions: 1 2 3 4 5 6 7 8 9 10 11 12 13 14 15 16 17 18 19 20 21 22 23 24 25 26 27 28 29 30 31 32 33 34 35 36 37 38 39 40 41 42 43 44 45 46 47 48 49 50
000
ASUS43 KBIS 030902
RWRND

NORTH DAKOTA REGIONAL WEATHER ROUNDUP
NATIONAL WEATHER SERVICE BISMARCK ND
400 AM CDT WED JUN 03 2015

NOTE: "FAIR" INDICATES FEW OR NO CLOUDS BELOW 12,000 FEET WITH NO
SIGNIFICANT WEATHER AND/OR OBSTRUCTIONS TO VISIBILITY.


NDZ001>003-009>011-017-031000-
NORTHWEST NORTH DAKOTA

CITY           SKY/WX    TMP DP  RH WIND       PRES   REMARKS
WILLISTON      CLOUDY    53  50  89 N9        29.98R
MINOT          CLOUDY    47  45  93 N17       29.93R
MINOT AFB      CLOUDY    48  48 100 NE12      29.93R
$$

NDZ018>021-031>035-040>046-031000-
SOUTHWEST NORTH DAKOTA

CITY           SKY/WX    TMP DP  RH WIND       PRES   REMARKS
BISMARCK       CLOUDY    58  55  90 NW12      29.81S
DICKINSON      CLOUDY    54  50  86 N14       29.91S
GARRISON         N/A     50  47  89 N15G24    29.88R
HETTINGER ARPT CLOUDY    54  51  90 NW18G24   29.91S
$$

NDZ004>008-012>016-024-026-027-054-031000-
NORTHEAST NORTH DAKOTA

CITY           SKY/WX    TMP DP  RH WIND       PRES   REMARKS
GRAND FORKS    CLOUDY    61  60  97 NE14      29.73F
GRND FRKS AFB  CLOUDY    57  55  94 N13       29.75S
DEVILS LAKE    CLOUDY    52  39  62 N15       29.84R
$$

NDZ022-023-025-028>030-036>039-047>053-031000-
SOUTHEAST NORTH DAKOTA

CITY           SKY/WX    TMP DP  RH WIND       PRES   REMARKS
FARGO          MOCLDY    65  61  87 S6        29.68S
JAMESTOWN      CLOUDY    61  59  93 N8        29.77R
$$




USA.gov is the U.S. government's official web portal to all federal, state and local government web resources and services.